{"data":{"norad_id":50818,"intl_designator":"2022-001R","name":"STARLINK-3336","alt_names":[],"object_type":"PAYLOAD","status":"ACTIVE","operator":null,"country":"US","launch_date":"2022-01-06","launch_site_code":"AFETR","launch_vehicle":null,"mission":null,"orbit_class":"UNKNOWN","rcs_meters":null,"size_class":null,"mass_kg":null,"dimensions":null,"purposes":["comms"],"wikipedia_slug":null,"has_3d_model":false,"image_url":null,"decayed_at":null,"tle_current":{"epoch":"2026-09-19T22:13:49.589760Z","epoch_age_seconds":97876,"freshness":"FRESH","line1":"1 50818U 22001R   26262.92626840  .00002425  00000+0  82905-4 0  9992","line2":"2 50818  53.1628   4.7475 0002689  25.7075 334.4061 15.34396634259895","mean_motion":15.34396634,"eccentricity":0.0002689,"inclination_deg":53.1628,"raan_deg":4.7475,"arg_perigee_deg":25.7075,"mean_anomaly_deg":334.4061,"bstar":8.2905e-5,"rev_number":25989,"period_min":93.847963954801,"perigee_km":460.87374005595,"apogee_km":464.55274931754,"semimajor_km":6840.8502446867,"source":"CELESTRAK","updated_at":"2026-09-20T09:00:39.577480Z"}}}